Main page
METAR-TAF:

METAR-TAF

Airports :

RAF Linton-on-Ouse

Linton-on-Ouse, England

latitude: 54-03N, longitude: 001-15W, elevation: 16 m

Current weather observation

The report was made 1 hour and 8 minutes ago, at 00:50 UTC
Wind 5 kt from the North/Northwest
Temperature 3°C
Humidity 93%
Pressure 1030 hPa
Visibility: 7000 m

METAR: EGXU 190050Z AUTO 33005KT 7000 // BKN030/// 03/02 Q1030

Time: 01:58 (01:58 UTC)


TAF: missing

Weather observations and forecasts of more than 4000 airports (METAR and TAF reports).

The available stations are represented by yellow and red dots on the map.

Hover mouse over dot to see the name of the station.

Then click to see weather observations and forecasts.

To change the map : click on the green buttons with a black cross to zoom in, on the green button with a dash to zoom out, or on the green arrows for adjacent maps.


METAR-TAF: